Dewpoint
53 59 61 62 62 62 60 62 62 62 64 64 64 63 62 64 64 63 62 61 60 59 58 58 58 59 60 60 61 61 60 60 61 60 57 56 56 55 54 54 55 56 57
45 45 53 61 61 61 62 63 62 61 64 64 63 63 64 64 64 64 63 62 61 60 60 60 60 61 61 62 62 61 60 60 60 56 55 51 52 53 54 53 53 53 53
41 42 43 55 59 61 63 63 63 62 63 62 64 63 63 63 63 63 63 63 63 62 62 62 62 63 63 62 63 62 61 58 58 58 55 51 49 52 53 52 52 52 51
41 41 41 40 52 57 61 63 63 63 63 64 62 62 61 60 61 62 63 62 62 62 62 63 63 63 62 61 60 60 59 59 57 56 56 56 55 52 49 52 51 50 50
41 40 40 40 41 41 49 59 62 63 63 63 63 62 61 61 61 61 60 58 58 58 57 58 58 58 57 57 57 56 56 55 55 54 54 54 53 55 53 49 49 49 47
39 40 40 40 40 40 40 43 54 60 62 62 63 63 61 60 60 59 58 56 55 54 54 53 53 52 51 51 50 51 52 52 52 52 52 52 51 50 50 50 49 49 47
38 38 39 39 39 40 40 42 47 53 59 60 61 61 61 60 59 59 57 55 53 53 52 51 49 47 46 46 47 47 47 48 48 50 51 52 52 53 52 51 50 49 47
35 36 37 38 38 38 39 41 45 50 56 55 57 58 59 58 58 57 56 54 53 52 51 48 47 44 44 44 44 44 46 49 49 50 51 51 50 51 51 51 50 48 48
31 33 37 38 37 37 39 41 45 49 54 54 53 54 54 55 55 55 55 54 52 50 48 47 46 44 43 42 42 42 43 46 47 48 49 49 49 49 49 50 50 49 45
29 31 33 39 40 41 42 44 46 47 49 50 50 51 51 52 52 52 52 51 49 47 44 43 42 41 40 40 40 41 42 44 45 46 46 46 47 47 47 47 47 48 48
31 32 33 38 42 44 44 44 45 46 47 47 47 47 47 48 48 48 46 45 44 42 41 41 40 40 39 39 39 40 41 41 42 43 44 44 44 44 44 44 45 46 46
33 34 35 37 40 43 44 44 45 45 46 46 45 45 44 44 43 42 41 41 40 40 40 40 39 39 39 39 39 39 39 39 40 41 43 42 42 42 41 41 41 42 42
30 33 34 35 38 41 43 44 45 45 45 45 44 43 42 42 41 41 40 40 39 39 39 39 38 38 38 38 38 38 38 38 39 39 41 41 40 40 40 40 40 40 41
31 30 32 34 36 39 41 43 44 45 44 44 43 42 41 40 40 40 40 39 38 38 38 38 38 37 37 37 37 38 37 37 37 38 38 38 39 39 38 38 38 39 39
30 30 30 32 36 38 39 42 43 44 43 43 42 41 41 40 39 39 38 38 38 37 37 37 37 37 37 37 37 38 38 38 37 36 36 37 38 39 38 37 36 37 38
31 31 32 33 34 36 38 40 42 43 43 42 42 41 40 39 39 38 38 38 37 37 37 36 36 36 37 37 39 39 38 38 37 35 34 34 35 37 36 35 34 35 36
32 33 33 33 34 34 36 37 39 42 42 42 41 41 40 39 38 38 37 36 36 36 36 36 36 36 35 38 39 40 38 37 36 34 32 30 31 30 32 33 32 32 33
33 33 34 35 36 36 36 37 39 41 42 41 41 40 39 38 38 37 37 36 35 35 35 35 35 35 35 38 39 40 36 35 34 32 30 27 25 27 27 25 21 24 26
35 35 36 37 37 37 37 38 39 40 41 41 41 40 39 38 37 37 36 35 35 35 35 35 35 35 35 37 39 36 34 33 31 28 26 23 20 22 29 23 20 22 25
36 36 36 37 37 37 38 39 39 39 40 41 41 40 39 38 37 37 36 35 35 35 35 35 34 35 34 36 38 35 32 31 30 28 27 30 25 27 27 22 20 18 21
36 37 37 37 37 38 38 38 39 39 40 41 40 40 39 38 37 37 36 35 35 34 34 34 35 35 35 33 36 37 31 30 29 27 24 25 31 29 27 23 19 17 22
37 38 37 37 37 38 38 38 39 40 40 40 39 39 39 38 37 36 35 35 35 34 35 35 34 34 33 34 33 35 30 25 21 21 23 23 28 29 28 26 20 21 25
38 39 37 37 37 37 38 38 39 40 40 40 39 39 38 38 37 36 35 35 34 34 34 34 33 33 32 30 34 33 33 31 24 21 21 23 24 30 28 28 27 26 23
35 39 39 37 36 37 37 38 39 39 39 39 39 38 38 37 37 36 35 35 34 34 34 34 33 33 32 31 30 32 31 31 30 27 24 24 24 25 27 26 27 24 25
37 39 39 39 37 37 37 38 39 39 38 38 38 38 38 37 36 36 36 35 35 35 34 34 33 32 32 31 30 29 28 30 29 25 22 22 24 24 25 22 21 20 23
39 39 39 40 37 39 37 38 38 39 39 39 39 38 38 37 37 36 36 37 36 36 36 35 34 33 33 33 33 33 30 30 31 27 23 22 22 23 23 21 20 18 18
Wind_Speed
1 6 12 18 22 23 28 24 21 22 17 11 11 20 26 18 12 10 12 14 17 18 17 15 15 13 14 14 11 6 8 7 5 5 5 5 7 8 4 5 5 6 6
3 5 5 9 17 24 20 21 25 22 19 18 12 5 7 9 6 11 14 16 16 15 16 17 16 15 13 12 11 9 3 3 1 4 3 6 7 4 5 5 6 10 11
2 1 9 12 11 16 19 19 20 19 19 15 8 7 5 3 8 10 12 12 14 16 16 13 11 8 5 6 4 6 7 6 1 2 3 4 4 3 2 6 7 5 11
5 6 5 7 12 17 11 14 15 17 18 16 18 17 14 19 13 13 8 5 4 4 1 8 12 15 11 8 4 3 4 4 6 2 3 5 2 5 5 2 6 7 8
11 11 11 12 10 7 11 12 11 13 14 14 18 19 20 18 9 7 11 8 8 11 11 9 7 5 2 7 1 1 2 3 1 3 1 1 2 5 8 8 3 4 5
15 14 13 10 15 8 10 10 11 13 11 13 15 16 16 12 8 8 12 10 9 10 11 9 12 7 4 6 5 3 3 2 1 1 2 4 3 2 6 8 7 5 2
13 14 14 15 14 13 12 10 10 14 10 10 9 10 9 11 13 13 15 17 12 8 11 10 8 3 4 5 5 4 3 2 1 2 3 3 5 4 4 5 9 7 4
7 8 13 13 14 15 13 11 12 12 5 5 5 5 7 8 9 13 15 15 16 17 14 13 10 2 4 4 3 3 2 2 0 1 3 3 4 4 5 4 5 8 5
8 5 0 5 11 14 13 10 9 9 8 8 7 5 5 9 11 12 13 13 12 14 15 15 15 11 4 3 2 3 2 2 2 1 1 2 2 2 4 5 7 6 6
9 8 8 8 8 7 7 5 7 8 7 7 7 8 9 10 12 12 13 17 15 15 15 13 12 9 10 5 4 2 2 1 2 3 3 2 1 2 2 3 4 5 6
10 9 10 9 6 3 2 4 7 9 9 7 6 7 8 10 12 13 9 11 15 18 17 15 13 12 9 6 5 4 3 3 3 3 3 2 1 1 2 3 3 4 3
6 5 6 7 7 2 1 4 7 10 11 12 12 13 13 12 11 11 9 7 7 7 8 9 8 5 5 5 5 3 2 2 4 4 2 4 1 1 1 2 3 3 1
10 5 4 4 2 2 4 7 9 10 11 12 14 14 14 14 13 12 11 11 9 10 9 9 9 7 5 5 4 5 2 2 2 1 2 3 2 2 2 1 2 3 2
13 13 14 10 8 5 3 4 5 8 12 14 14 14 14 15 15 15 15 15 12 10 9 10 7 6 8 6 3 1 1 3 3 2 0 1 1 3 3 3 3 3 4
11 12 13 13 11 11 8 5 6 7 9 12 14 14 13 12 12 13 12 14 12 12 10 11 8 7 5 3 2 1 3 3 2 2 1 2 2 1 2 3 4 5 5
12 10 11 11 13 12 12 9 11 11 10 13 15 13 13 14 14 15 14 13 13 11 9 9 8 6 4 4 4 4 3 4 5 4 2 2 2 1 1 1 1 3 4
12 14 13 12 13 14 13 14 15 10 14 16 15 15 15 17 16 15 15 14 13 11 10 8 8 7 5 5 4 5 4 4 4 5 5 3 2 3 6 8 9 8 5
13 17 17 17 16 14 16 15 12 11 16 18 17 16 17 18 16 15 14 12 10 10 9 8 7 5 6 5 5 7 7 7 6 6 6 5 4 3 4 4 5 6 6
19 19 18 19 17 19 18 17 17 13 14 19 20 20 20 19 18 19 17 13 12 10 8 6 9 9 7 7 8 8 7 7 6 5 5 4 4 4 5 4 4 4 6
19 21 20 18 19 22 14 15 18 15 18 22 22 19 20 21 22 20 19 13 12 11 9 9 9 10 9 8 8 8 6 7 6 4 4 5 6 5 6 5 6 5 4
20 20 18 19 21 19 14 18 17 18 22 14 16 19 20 21 20 20 15 17 14 12 11 10 9 8 8 8 8 10 7 7 7 7 6 6 7 6 6 6 6 6 8
17 18 20 21 20 15 12 19 19 19 11 15 18 19 19 18 18 20 16 15 16 14 11 9 7 6 7 8 9 10 8 8 8 8 7 7 7 8 7 6 6 5 7
21 17 17 22 20 16 12 17 19 12 14 17 18 18 17 17 18 20 19 17 15 14 12 10 10 10 9 9 11 12 13 12 8 7 8 9 9 9 7 7 7 7 8
26 19 19 19 23 15 12 13 13 9 13 16 16 16 17 16 15 13 15 16 15 13 11 11 11 11 10 11 11 11 11 13 13 10 8 8 9 8 7 6 7 7 10
23 19 21 20 19 12 10 9 5 9 11 12 14 15 15 15 14 12 14 14 12 14 14 13 12 11 11 14 14 14 14 13 10 8 5 6 6 8 8 6 7 6 7
21 21 25 19 16 8 8 7 6 9 12 11 11 13 14 14 14 14 10 9 8 14 11 9 10 10 9 7 12 15 17 16 14 8 9 11 11 12 12 11 11 10 11
Wind_Direction
125 162 168 172 170 171 188 188 191 203 203 204 199 202 205 223 227 236 216 205 197 197 195 202 200 196 202 210 207 215 226 255 241 282 303 294 298 306 1 5 344 15 44
116 127 148 168 181 195 196 191 199 208 199 199 214 215 191 229 228 221 229 214 197 197 190 197 203 195 200 212 204 198 231 227 188 272 316 313 326 357 43 44 61 86 85
231 150 164 195 210 200 201 203 211 212 218 217 190 183 154 198 216 216 221 218 210 198 197 187 185 181 187 215 197 187 199 249 8 129 242 296 252 333 335 53 55 83 99
234 249 272 216 198 215 209 210 208 219 218 210 211 210 224 240 235 226 204 196 78 77 99 183 183 183 164 165 201 178 173 180 249 302 249 247 228 271 294 49 57 53 72
246 252 246 258 257 226 205 215 219 220 218 209 212 214 213 224 218 176 144 102 68 67 59 62 57 51 128 113 187 104 141 124 195 206 222 245 274 254 244 273 235 70 67
246 251 251 269 268 253 239 219 216 229 215 207 218 214 221 207 204 152 132 111 86 77 70 67 69 52 36 76 83 61 79 103 156 204 206 223 225 260 238 250 271 251 176
234 255 261 255 259 262 249 239 233 235 212 207 217 222 224 213 197 165 154 146 137 117 103 73 66 109 107 100 121 130 96 114 136 273 258 229 239 230 245 247 262 254 199
218 242 263 264 261 260 256 232 230 243 223 176 195 211 219 204 174 165 160 160 152 142 137 135 142 123 112 127 102 104 104 114 135 279 250 245 231 219 233 244 256 268 217
107 124 259 281 282 270 263 257 222 207 194 190 179 183 178 172 169 164 153 154 142 143 162 157 148 153 147 85 64 54 355 3 316 305 284 274 264 263 266 253 245 242 254
49 38 23 9 342 306 277 242 204 201 179 171 175 173 165 158 149 144 157 157 148 152 166 158 145 149 144 148 96 27 353 354 337 299 260 256 284 287 280 278 252 241 245
35 20 5 4 10 332 274 203 189 180 179 173 167 166 160 153 147 158 163 162 156 166 166 161 161 169 152 133 125 137 64 340 307 295 281 264 196 288 334 313 291 260 220
12 357 351 344 356 15 213 198 177 178 179 175 171 166 154 148 142 133 108 89 105 88 118 120 120 103 92 103 91 80 120 8 316 332 278 268 218 92 337 295 290 265 253
340 322 323 336 350 282 208 192 190 191 184 173 165 161 160 157 152 145 135 127 129 124 127 123 121 131 122 84 66 48 38 82 39 344 230 243 228 258 259 239 256 275 246
315 312 315 317 318 320 291 246 209 187 183 181 179 178 176 172 165 162 154 140 140 137 137 125 131 120 104 84 63 63 89 107 128 103 109 96 171 244 233 250 248 237 229
317 320 310 307 304 305 306 289 264 224 198 192 191 190 179 173 164 154 147 139 150 149 151 129 124 107 106 116 149 201 227 208 177 114 93 66 79 241 234 229 239 235 213
305 315 321 320 317 311 302 290 263 237 209 210 208 190 178 171 170 156 156 153 149 147 144 136 132 161 164 188 202 204 216 213 199 186 123 86 60 79 106 136 179 238 224
306 314 317 314 308 304 301 289 274 240 218 218 210 196 184 182 178 168 163 160 158 154 156 153 165 184 196 215 222 202 182 185 191 186 185 167 110 91 88 71 66 56 46
316 315 312 310 306 304 297 298 291 249 227 221 213 200 191 186 176 173 171 162 161 166 164 172 176 184 216 218 229 191 159 162 177 185 192 193 188 169 137 113 73 56 53
314 304 300 302 301 299 303 302 293 261 231 222 212 202 190 184 179 179 177 173 168 169 168 177 189 199 210 210 193 157 161 167 179 182 190 194 195 213 173 149 133 102 71
315 312 303 300 300 298 304 297 282 258 236 223 211 191 184 185 186 179 177 175 173 169 169 181 192 198 203 207 206 169 180 183 189 185 206 217 208 213 187 177 175 166 145
300 307 303 285 281 289 297 286 274 252 241 220 194 187 186 186 182 176 174 171 168 161 176 189 200 199 200 203 206 181 185 198 198 202 212 226 217 211 194 171 192 206 167
305 306 298 288 280 276 277 282 275 259 227 199 192 191 183 175 175 175 171 169 170 176 179 181 196 218 218 211 216 207 196 188 194 205 217 222 228 212 197 180 200 204 160
296 298 285 285 279 273 259 276 279 248 206 190 192 186 176 174 171 172 171 173 180 182 183 189 206 221 219 215 217 221 207 205 205 206 216 214 219 219 214 200 192 186 162
299 294 294 281 280 271 264 266 276 228 200 191 178 165 168 164 165 165 168 171 181 188 191 198 212 213 214 216 214 215 215 221 212 201 204 213 209 206 196 201 205 180 185
292 292 293 285 277 269 267 270 242 190 185 169 154 153 154 161 160 166 176 182 190 191 197 205 204 204 215 221 208 203 208 212 204 170 171 187 196 203 204 207 212 202 200
302 296 290 279 269 256 264 242 200 173 158 156 154 156 161 161 164 172 179 190 194 205 206 194 199 212 219 202 207 209 209 207 193 179 203 208 208 214 216 219 225 225 223